Welcome to the New NWS' Forecast!
Most changes are behind the scenes, but click here for differences you might notice.
Latest weather observations around

Everett Snohomish County (KPAE)

Using International System of Units (Switch to English Units)
Date/ Time (PDT) Wind (kph) Vis. (km) Weather Sky Cond. Temp (°C) Rel. Humidity Wind Chill (°C) Heat Index (°C) Pressure Precip. (cm)
Air Dwpt 6 hour Altimeter (hPa) Sea level (hPa) 1 hr 3 hr 6 hr
Max Min
Oct 17 23:53 NNW 5 16.09 Clear CLR 11 7     79%     1020.3 1020.3      
Oct 17 22:53 Calm 16.09 Clear CLR 11 7     74%     1020 1019.8      
Oct 17 21:53 Calm 16.09 Clear CLR 14 7     64%     1019.7 1019.6      
Oct 17 20:53 Calm 16.09 Clear CLR 14 7     62%     1019.7 1019.6      
Oct 17 19:53 Calm 16.09 Clear CLR 13 6     62%     1019.7 1019.9      
Oct 17 18:53 NW 5 16.09 Clear   15 6     55%     1019.7 1019.8      
Oct 17 17:53 Calm 16.09 Clear CLR 18 7     48%     1019.3 1019.3      
Oct 17 16:53 NNW 5 16.09 Clear CLR 20 7     43%     1019.3 1019.3      
Oct 17 15:53 5 16.09 Clear CLR 20 8     45%     1020 1019.7      
Oct 17 14:53 WSW 5 16.09 Clear CLR 20 3     32%     1020.3 1020.2      
Oct 17 13:53 SW 8 16.09 Clear CLR 19 3     34%     1021.3 1021.1      
Oct 17 12:53 WSW 8 16.09 Clear CLR 19 8     48%     1022 1022      
Oct 17 11:53 Calm 16.09 Clear CLR 17 8     56%     1022.7 1022.6      
Oct 17 10:53 NW 5 16.09 Clear CLR 15 9     67%     1022.7 1022.8      
Oct 17 09:53 Calm 16.09 Clear CLR 13 7     67%     1022.7 1022.8      
Oct 17 08:53 NNW 5 16.09 Clear CLR 11 7     79%     1022.7 1022.7      
Oct 17 07:53 Calm 16.09 Clear CLR 9 6     80%     1022.7 1022.6      
Oct 17 06:53 Calm 16.09 Clear CLR 8 6     83%     1022.7 1022.7      
Oct 17 05:53 Calm 16.09 Clear CLR 9 7     89%     1022.7 1022.8      
Oct 17 04:53 Calm 16.09 Clear CLR 9 6     77%     1023 1022.9      
Oct 17 03:53 Calm 16.09 Clear CLR 11 5     66%     1022.7 1022.7      
Oct 17 02:53 Calm 16.09 Clear CLR 11 7     79%     1023 1022.9      
Oct 17 01:53 NNW 5 16.09 Clear CLR 10 8     86%     1023.4 1023.5      
Oct 17 00:53 Calm 16.09 Clear CLR 10 8     86%     1023.7 1023.8      
Oct 16 23:53 NNW 5 16.09 Clear CLR 11 8     83%     1024.1 1024.1      
Oct 16 22:53 NNW 8 16.09 Clear CLR 11 7     77%     1024.4 1024.4      
Oct 16 20:53 Calm 16.09 Clear CLR 11 7     77%     1024.4 1024.4      
Oct 16 19:53 NW 5 16.09 Clear CLR 13 8     72%     1024.4 1024.5      
Oct 16 18:53 NW 5 16.09 Clear CLR 14 7     64%     1024.1 1024.2      
Oct 16 17:53 NW 5 16.09 Clear CLR 16 8     58%     1024.1 1024      
Oct 16 16:53 WNW 5 16.09 Clear   18 8     52%     1024.4 1024.2      
Oct 16 15:53 5 16.09 Clear CLR 18 8     50%     1024.7 1024.6      
Oct 16 14:53 NW 9 16.09 Clear CLR 17 7     50%     1025.1 1025.1      
Oct 16 13:53 NNW 9 16.09 Clear CLR 18 6     46%     1025.7 1025.6      
Oct 16 12:53 NW 5 16.09 Clear CLR 16 7     54%     1026.1 1026.2      
Oct 16 11:53 NW 8 16.09 Clear CLR 14 8     67%     1026.4 1026.6      
Oct 16 10:53 NNW 5 16.09 Clear CLR 13 8     74%     1026.8 1026.8      
Oct 16 09:53 N 8 16.09 Clear CLR 11 8     86%     1026.8 1027      
Oct 16 08:53 NNW 5 16.09 Clear CLR 9 8     93% 9   1027.1 1027.1      
Oct 16 07:53 NNW 8 11.27 Clear CLR 8 8     97% 7   1026.8 1026.8      
Oct 16 07:34 NNW 8 6.44 Fog/Mist SCT001 8 8     100% 7   1026.8        
Oct 16 07:30 NNW 8 3.22 Fog/Mist BKN001 8 8     100% 7   1026.8        
Oct 16 06:57 NNW 8 0.8 Fog VV001 8 8     97% 7   1026.8        
Oct 16 06:53 NNW 8 0.4 Fog VV001 8 8     97% 7   1026.8 1026.9      
Oct 16 06:16 N 8 0.4 Fog VV001 8 8     100% 7   1026.8        
Oct 16 06:09 N 9 1.21 Fog/Mist VV001 9 8     96% 7   1026.8        
Oct 16 06:01 NNW 8 4.02 Fog/Mist BKN001 9 8     96% 8   1026.8        
Oct 16 05:53 N 9 11.27 Partly Cloudy SCT001 9 8     96% 7   1026.8 1026.7      
Oct 16 04:53 NW 5 12.87 Clear CLR 8 8     97% 8   1026.8 1026.7      
Oct 16 03:53 N 8 16.09 Clear CLR 8 8     97% 7   1026.8 1026.8      
Oct 16 02:53 NNW 5 16.09 Clear CLR 8 8     97% 8   1027.1 1027      
Oct 16 01:53 NNW 5 16.09 Clear CLR 8 7     93% 8   1027.1 1027.2      
Oct 16 00:53 NNW 5 16.09 Clear CLR 9 7     89% 8   1027.1 1027.1      
Oct 15 23:53 Calm 16.09 Clear CLR 9 7     86%     1027.1 1027.1      
Oct 15 22:53 NNW 5 16.09 Clear CLR 9 7     83% 9   1026.8 1026.9      
Oct 15 21:53 NNW 5 16.09 Clear CLR 10 7     80%     1026.8 1027.1      
Oct 15 20:53 NNW 5 16.09 Clear CLR 11 7     74%     1026.8 1026.9      
Oct 15 19:53 NNW 5 16.09 Clear CLR 11 7     74%     1026.4 1026.6      
Oct 15 18:53 NNW 5 16.09 Clear CLR 12 6     69%     1026.4 1026.6      
Oct 15 17:53 NW 8 16.09 Clear CLR 14 6     57%     1026.4 1026.5      
Oct 15 16:53 NW 9 16.09 Clear CLR 16 5     49%     1026.8 1026.9      
Oct 15 15:53 9 16.09 Clear CLR 16 4     47%     1027.1 1027.3      
Oct 15 14:53 NNW 9 16.09 Clear CLR 15 5     51%     1027.8 1027.7      
Oct 15 13:53 NNW 15 16.09 Clear CLR 14 4     49%     1028.1 1028.1      
Oct 15 12:53 NNW 11 16.09 Clear CLR 13 4     53%     1028.5 1028.4      
Oct 15 11:53 WNW 9 16.09 Clear CLR 12 5     63%     1028.8 1028.9      
Oct 15 10:53 NW 11 16.09 Clear CLR 10 5     71%     1028.8 1028.9      
Oct 15 09:53 NNW 11 16.09 Clear CLR 9 4     71% 8   1028.5 1028.7      
Oct 15 08:53 N 8 16.09 Clear CLR 8 4     74% 7   1028.5 1028.7      
Oct 15 07:53 N 5 16.09 Clear CLR 7 4     82% 6   1028.1 1028.4      
Oct 15 06:53 5 16.09 Clear CLR 7 5     89% 6   1028.1 1028.3      
Oct 15 05:53 NNW 5 16.09 Clear CLR 7 4     82% 6   1028.1 1028.2      
Oct 15 04:53 NW 8 16.09 Clear CLR 7 4     82% 6   1028.1 1028.2      
Oct 15 03:53 NNW 8 16.09 Clear   8 5     82% 7   1028.1 1028.1      
Oct 15 02:53 NNW 8 16.09 Clear CLR 8 6     86% 7   1028.5 1028.4      
Oct 15 01:53 Calm 16.09 Clear CLR 8 6     86%     1028.5 1028.5      
Oct 15 00:53 Calm 16.09 Clear CLR 8 6     83%     1028.5 1028.4      
Oct 14 23:53 Calm 16.09 Clear CLR 8 6     86%     1028.5 1028.5      
Oct 14 22:53 NNW 5 16.09 Clear CLR 8 6     83% 8   1028.5 1028.4      
Oct 14 21:53 NNW 5 16.09 Clear   9 4     71% 9   1027.8 1028      
Oct 14 20:53 NW 8 16.09 Clear CLR 9 4     71% 8   1028.1 1028.3      
Oct 14 19:53 N 8 16.09 Clear CLR 12 4     59%     1028.1 1028.3      
Oct 14 18:53 NNW 5 16.09 Clear CLR 12 3     53%     1028.1 1028.4      
Oct 14 17:53 NW 9 16.09 Clear CLR 14 2     42%     1028.5 1028.6      
Oct 14 16:53 NNW 9 16.09 Clear CLR 16 1     36%     1028.5 1028.6      
Oct 14 15:53 NW 8 16.09 Clear CLR 16 2     38%     1028.8 1028.8      
Oct 14 14:53 NW 8 16.09 Clear CLR 17 -1     30%     1028.8 1028.9      
Oct 14 13:53 WNW 8 16.09 Clear CLR 16 1     36%     1029.1 1029.4      
Oct 14 12:53 5 16.09 Clear CLR 16 3     44%     1029.5 1029.7      
Oct 14 11:53 SE 9 16.09 Clear CLR 15 0     36%     1029.8 1030      
Oct 14 10:53 E 8 16.09 Clear CLR 13 0     41%     1029.8 1030      
Oct 14 09:53 NE 5 16.09 Clear CLR 11 1     48%     1029.8 1029.9      
Oct 14 08:53 Calm 16.09 Clear CLR 9 3     68%     1029.5 1029.7      
Oct 14 07:53 Calm 16.09 Clear CLR 4 3     89%     1029.1 1029.3      
Oct 14 06:53 Calm 16.09 Clear CLR 6 3     82%     1028.8 1029.1      
Oct 14 05:53 Calm 16.09 Clear CLR 6 3     85%     1028.5 1028.7      
Oct 14 04:53 Calm 16.09 Clear CLR 7 4     82%     1028.1 1028.3      
Oct 14 03:53 N 8 16.09 Clear CLR 7 5     86% 6   1027.8 1027.9      
Oct 14 02:53 NNW 5 16.09 Clear CLR 8 5     80% 8   1027.8 1027.9      
Oct 14 01:53 N 5 16.09 Clear CLR 8 5     80% 8   1027.4 1027.6      
Oct 14 00:53 NNW 11 16.09 Clear CLR 9 6     80% 7   1027.1 1027      
Oct 13 23:53 NNW 8 16.09 Clear CLR 9 6     77% 8   1026.4 1026.6      
Oct 13 22:53 N 9 16.09 Clear CLR 10 6     77%     1026.1 1026.2      
Oct 13 21:53 NNW 13 16.09 Clear CLR 11 6     74%     1025.7 1025.9      
Oct 13 20:53 NW 15 16.09 Clear CLR 12 5     63%     1025.4 1025.4      
Oct 13 19:53 NW 11 16.09 Clear CLR 11 4     63%     1025.1 1025.4      
Oct 13 18:53 NW 11 16.09 Clear CLR 12 4     61%     1025.1 1025.1      
Oct 13 17:53 WNW 11 16.09 Clear CLR 13 6     60%     1024.7 1024.9      
Oct 13 16:53 WNW 17 16.09 Clear CLR 15 6     53%     1024.7 1024.9      
Oct 13 15:53 NW 17 16.09 Clear CLR 16 6     51%     1025.1 1024.9      
Oct 13 14:53 NNW 13 16.09 Clear CLR 15 6     55%     1025.1 1025.2      
Oct 13 13:53 NW 15 16.09 Clear CLR 14 7     62%     1025.4 1025.5      
Oct 13 12:53 NW 18 16.09 Clear CLR 13 8     69%     1025.7 1025.8      
Oct 13 11:53 NW 17 16.09 Clear CLR 12 9     80%     1025.7 1025.7      
Oct 13 10:53 NNW 15 16.09 Partly Cloudy SCT007 11 8     83%     1025.7 1025.8      
Oct 13 09:53 NNW 11 12.87 Mostly Cloudy SCT003 BKN005 9 8     93% 8   1025.7 1026      
Oct 13 08:53 NNW 15 12.87 Cloudy OVC005 9 8     93% 7   1025.4 1025.5      
Oct 13 08:17 NNW 11 9.66 Fog/Mist OVC005 9 8     93% 7   1025.1        
Oct 13 08:10 NNW 13 11.27 Cloudy OVC004 9 8     93% 7   1024.7        
Oct 13 07:53 NNW 13 9.66 Fog/Mist OVC005 9 8     93% 7   1024.7 1024.9      
Oct 13 07:14 NNW 13 11.27 Cloudy OVC006 9 8     93% 7   1024.1        
Oct 13 06:53 NNW 11 9.66 Fog/Mist OVC004 9 8     93% 7   1024.1 1024.2      
Oct 13 06:48 NNW 9 9.66 Fog/Mist OVC004 9 8     93% 8   1024.1        
Oct 13 05:53 NNW 9 9.66 Fog/Mist BKN005 OVC010 9 8     93% 8   1023.4 1023.5      
Oct 13 05:48 NNW 11 9.66 Fog/Mist BKN005 OVC010 9 8     93% 7   1023.4        
Oct 13 02:53 NW 8 16.09 Cloudy SCT006 OVC012 10 9     93%     1022.4 1022.4      
Oct 13 02:41 NW 11 16.09 Cloudy BKN006 OVC012 10 9     93%     1022.4        
Oct 13 02:13 NW 9 16.09 Cloudy FEW004 OVC012 9 9     97% 8   1022        
Oct 13 00:33 NW 13 12.87 Cloudy OVC001 10 9     96%     1021.3        
Oct 12 22:53 NW 11 14.48 Mostly Cloudy BKN002 10 9     96%     1020.7 1020.6      
Oct 12 22:46 NNW 9 16.09 Partly Cloudy SCT002 9 9     97% 8   1020.3        
Oct 12 14:53 WNW 11 16.09 Clear CLR 13 9     77%     1020 1019.9      
Oct 12 09:53 Calm 16.09 Mostly Cloudy BKN049 11 9     86%     1020.7 1020.9      
Oct 12 08:53 Calm 16.09 Mostly Clear FEW060 10 8     86%     1020.7 1020.8      
Oct 12 05:53 5 16.09 Clear CLR 9 7     89% 8   1020.3 1020.4      
Oct 12 03:53 Calm 16.09 Clear CLR 9 7     89%     1020.7 1020.8      
May 14 07:53 SE 5 16.09 Clear CLR 18 12     65%     1014.9 1014.7      
Notice The following observation data may not be complete
May 14 05:53 ESE 5 16.09 Clear CLR   11      %     1014.6 1014.3      
May 14 02:53 E 13 16.09 Clear CLR 17 11     67%     1013.9 1013.6      
May 13 04:53 NNW 11 16.09 Clear CLR 13 10     83%     1014.9 1014.9      
May 12 08:17 NNW 8 2.41 Fog/Mist SCT001 11 10     96%     1022.4        
May 12 02:53 NNW 8 16.09 Clear CLR 10 9     93% 9   1022.7 1022.5      
May 12 01:53 NNW 8 16.09 Clear CLR 10 8     89% 9   1022.7 1022.7      
May 11 18:53 NW 9 16.09 Clear CLR 17 8     56%     1023 1022.9      
Jun 11 21:53 8 16.09 Clear CLR 13 9     77%     1015.9 1015.8      
Jun 11 20:53 NW 8 16.09 Clear   14 9     70%     1015.9 1015.7      
Jun 11 19:53 NW 9 16.09 Clear   17 7     52%     1015.9 1015.6      
Jun 11 11:53 WSW 11 16.09 Clear CLR 15 11     75%     1017.6 1017.5      
Jun 10 23:53 N 9 16.09 Clear   12 9     80%     1014.2 1014.3      
Jun 10 16:53 NW 11 16.09 Clear CLR 16 6     52%     1011.5 1011.6      
Notice The following observation data may not be complete
Jun 10 02:39   16.09 Cloudy BKN015 OVC080          %              
Jun 10 01:48   16.09 Cloudy FEW016 BKN070 OVC085 11 8     82%     1011.5        
Jun 09 11:10 Calm 16.09 Cloudy FEW025 BKN031 OVC080 13 8     72%     1012.2        
Jun 09 06:53 ESE 15 16.09 Cloudy OVC055 10 8     86% 8   1012.9 1012.8      
Jun 09 02:53 SSE 13 16.09 Mostly Cloudy BKN070 11 7     79%     1014.2 1014      
Jun 08 07:29 SSE 13 12.87 Light Rain SCT004 BKN009 BKN045 13 12     93%     1003.7   0    
Jun 06 05:53 WNW 5 16.09 Clear CLR 11 9     86%     1016.9 1016.6      
Jun 05 22:53 8 16.09 Clear CLR 12 8     80%     1018.6 1018.5      
Jun 05 18:53 NW 11 16.09 Clear CLR 18 8     52%     1018.3 1018.4